TimeMST,TemperatureF,Dew PointF,Humidity,Sea Level PressureIn,VisibilityMPH,Wind Direction,Wind SpeedMPH,Gust SpeedMPH,PrecipitationIn,Events,Conditions,WindDirDegrees,DateUTC
12:15 AM,30.2,26.6,86,29.99,10.0,WNW,3.5,-,N/A,,Clear,290,2012-12-03 07:15:00
12:35 AM,30.2,26.6,86,30.00,10.0,North,6.9,-,N/A,,Clear,350,2012-12-03 07:35:00
12:55 AM,30.2,26.6,86,30.01,10.0,NNW,3.5,-,N/A,,Clear,340,2012-12-03 07:55:00
1:15 AM,30.2,26.6,86,30.02,10.0,Calm,Calm,-,N/A,,Clear,0,2012-12-03 08:15:00
1:35 AM,30.2,26.6,86,30.02,10.0,NW,4.6,-,N/A,,Clear,320,2012-12-03 08:35:00
1:55 AM,28.4,26.6,93,30.02,10.0,Calm,Calm,-,N/A,,Clear,0,2012-12-03 08:55:00
2:15 AM,30.2,24.8,80,30.03,10.0,NNW,10.4,-,N/A,,Clear,340,2012-12-03 09:15:00
2:35 AM,30.2,23.0,75,30.04,10.0,NNW,11.5,-,N/A,,Clear,340,2012-12-03 09:35:00
2:55 AM,30.2,24.8,80,30.05,10.0,NNW,8.1,-,N/A,,Clear,330,2012-12-03 09:55:00
3:15 AM,30.2,23.0,75,30.06,10.0,NW,6.9,-,N/A,,Clear,310,2012-12-03 10:15:00
3:35 AM,30.2,24.8,80,30.06,10.0,NW,5.8,-,N/A,,Clear,320,2012-12-03 10:35:00
3:55 AM,28.4,23.0,80,30.06,10.0,NW,9.2,-,N/A,,Clear,320,2012-12-03 10:55:00
4:15 AM,28.4,24.8,86,30.06,10.0,NNW,3.5,-,N/A,,Clear,340,2012-12-03 11:15:00
4:55 AM,28.4,23.0,80,30.09,10.0,North,3.5,-,N/A,,Clear,10,2012-12-03 11:55:00
5:15 AM,28.4,23.0,80,30.09,10.0,Calm,Calm,-,N/A,,Clear,0,2012-12-03 12:15:00
5:35 AM,26.6,23.0,86,30.10,10.0,NNW,3.5,-,N/A,,Clear,340,2012-12-03 12:35:00
5:55 AM,26.6,23.0,86,30.10,10.0,NW,6.9,-,N/A,,Clear,310,2012-12-03 12:55:00
6:47 AM,26.6,21.2,80,30.12,10.0,WNW,5.8,-,N/A,,Scattered Clouds,300,2012-12-03 13:47:00
8:47 AM,24.8,21.2,86,30.16,10.0,NW,9.2,-,N/A,,Scattered Clouds,310,2012-12-03 15:47:00
9:47 AM,26.6,21.2,80,30.19,10.0,WNW,8.1,-,N/A,,Overcast,300,2012-12-03 16:47:00
10:47 AM,28.4,21.2,74,30.21,10.0,NW,6.9,-,N/A,,Overcast,310,2012-12-03 17:47:00
11:47 AM,32.0,21.2,64,30.20,10.0,NW,5.8,-,N/A,,Mostly Cloudy,310,2012-12-03 18:47:00
12:47 PM,33.8,24.8,70,30.19,10.0,Calm,Calm,-,N/A,,Scattered Clouds,0,2012-12-03 19:47:00
1:47 PM,37.4,24.8,60,30.19,10.0,SE,5.8,-,N/A,,Mostly Cloudy,130,2012-12-03 20:47:00
2:47 PM,39.2,26.6,61,30.18,10.0,NW,5.8,-,N/A,,Mostly Cloudy,310,2012-12-03 21:47:00
3:47 PM,37.4,28.4,70,30.19,10.0,SE,4.6,-,N/A,,Scattered Clouds,140,2012-12-03 22:47:00
4:50 PM,35.6,28.4,75,30.21,10.0,Calm,Calm,-,N/A,,Scattered Clouds,0,2012-12-03 23:50:00
6:50 PM,32.0,26.6,80,30.23,10.0,WNW,4.6,-,N/A,,Clear,290,2012-12-04 01:50:00
7:50 PM,30.2,26.6,86,30.24,10.0,West,6.9,-,N/A,,Clear,280,2012-12-04 02:50:00
8:47 PM,30.2,24.8,80,30.25,10.0,WNW,5.8,-,N/A,,Clear,290,2012-12-04 03:47:00
9:45 PM,28.4,24.8,86,30.25,10.0,NW,11.5,-,N/A,,Clear,310,2012-12-04 04:45:00
10:15 PM,30.2,24.8,80,30.25,10.0,NNW,10.4,-,N/A,,Clear,340,2012-12-04 05:15:00
10:35 PM,28.4,23.0,80,30.25,10.0,NW,11.5,-,N/A,,Clear,320,2012-12-04 05:35:00
10:47 PM,28.4,23.0,80,30.25,10.0,NNW,9.2,-,N/A,,Clear,330,2012-12-04 05:47:00
10:55 PM,28.4,24.8,86,30.25,10.0,NNW,10.4,-,N/A,,Clear,340,2012-12-04 05:55:00
11:15 PM,28.4,23.0,80,30.25,10.0,NNW,9.2,-,N/A,,Clear,330,2012-12-04 06:15:00
11:35 PM,28.4,23.0,80,30.25,10.0,NW,8.1,-,N/A,,Clear,310,2012-12-04 06:35:00
11:55 PM,28.4,23.0,80,30.25,10.0,NW,10.4,-,N/A,,Clear,310,2012-12-04 06:55:00